848  
ASUS42 KCAE 150210  
RWRCAE  
REGIONAL WEATHER ROUNDUP  
NATIONAL WEATHER SERVICE COLUMBIA SC  
1000 PM EDT FRI AUG 14 2020  
 
NOTE: "FAIR" INDICATES FEW OR NO CLOUDS BELOW 12,000 FEET WITH NO  
SIGNIFICANT WEATHER AND/OR S TO VISIBILITY
.  
 
NOT ALL STATIONS ARE QUALITY CONTROLLED BY THE NATIONAL  
WEATHER SERVICE. USE DATA WITH CAUTION...ESPECIALLY  
DEWPOINT OBSERVATIONS.  
 
SCZ001>056-GAZ040-063>065-077-150300-   
..UPSTATE SOUTH CAROLINA
 
 
 
CITY SKY/WX TMP DP RH WIND PRES REMARKS
 
ANDERSON LGT RAIN 78 73 84 SW6 29.95R  
LIBERTY MOCLDY 73 73 100 CALM 29.94R  
SPARTANBURG MOCLDY 77 73 88 SE3 29.94R  
CLEMSON MOCLDY 76 71 85 N3 29.95R  
GREENVILLE MOCLDY 82 73 74 CALM 29.95S  
GREENWOOD MOCLDY 75 73 93 S5 29.96R  
GREER MOCLDY 78 71 79 CALM 29.95R  
ROCK HILL PTCLDY 77 73 87 CALM 29.96R  
CHESTER PTCLDY 79 73 83 CALM 29.96R  
LAURENS MOCLDY 75 72 88 SW5 29.95R  
 
   
..CENTRAL SOUTH CAROLINA
 
 
 
CITY SKY/WX TMP DP RH WIND PRES REMARKS
 
COLUMBIA APT CLOUDY 80 74 81 SE3 29.94R  
COLUMBIA OWENS MOCLDY 81 74 79 CALM 29.95R  
MCENTIRE ANGB LGT RAIN 79 78 96 SE6 29.95R  
ORANGEBURG CLOUDY 76 75 97 E3 29.95S  
SUMTER SHAW PTCLDY 80 75 82 S7 29.94R  
NEWBERRY MOCLDY 73 73 100 CALM 29.98R  
AIKEN FAIR 75 74 96 CALM 29.97R  
BARNWELL MOCLDY 77 75 94 CALM 29.95R  
MANNING FAIR 77 72 83 CALM 29.95S  
CAMDEN FAIR 81 75 83 CALM 29.96R  
LANCASTER RAIN 75 75 100 SW6 29.96R  
WINNSBORO MOCLDY 77 72 83 S3 29.96R  
 
   
..EASTERN AND COASTAL SOUTH CAROLINA
 
 
 
CITY SKY/WX TMP DP RH WIND PRES REMARKS
 
MYRTLE BEACH MOCLDY 82 79 90 SW9 29.96R  
N MYRTLE BCH PTCLDY 83 79 88 SW14 29.94R  
CONWAY FAIR 79 77 94 S3 29.95R  
MARION FAIR 79 75 89 CALM 29.95R  
HARTSVILLE MOCLDY 75 72 88 CALM 29.96R  
FLORENCE PTCLDY 80 74 81 CALM 29.95R  
DARLINGTON MOCLDY 76 73 91 CALM 29.95S  
CHARLESTON APT LGT RAIN 79 76 90 CALM 29.95S  
MOUNT PLEASANT DRIZZLE 81 79 94 SW7G18 29.95S  
WALTERBORO CLOUDY 73 73 100 S3 29.96S  
BEAUFORT CLOUDY 81 75 82 CALM 29.95R  
HILTON HEAD N/A N/A N/A N/A MISG N/A  
 
   
..EASTERN GEORGIA
 
 
 
CITY SKY/WX TMP DP RH WIND PRES REMARKS
 
AUGUSTA BUSH F MOCLDY 78 76 93 CALM 29.93R  
AUGUSTA DANIEL MOCLDY 78 75 90 SE3 29.95R FOG  
THOMSON MOCLDY 75 N/A N/A SE5 29.95R HAZE  
WASHINGTON FAIR 73 73 100 CALM 29.94R  
CLAXTON FAIR 78 76 94 CALM 29.95R  
SYLVANIA MOCLDY 78 74 90 CALM 29.95R  
STATESBORO MOCLDY 78 73 84 S5 29.95R  
SAVANNAH MOCLDY 80 75 84 S9 29.96R  
 
   
..SOUTHERN NORTH CAROLINA
 
 
 
CITY SKY/WX TMP DP RH WIND PRES REMARKS
 
CHARLOTTE MOCLDY 79 71 76 E8 29.95R  
MONROE CLOUDY 78 74 87 VRB3 29.95R  
ASHEVILLE LGT RAIN 73 69 87 CALM 30.01S  
 

 
 
 
CLICK HERE TO GO TO PREVIOUS BULLETINS.

The Nexlab SC Page
The Nexlab GA Page Main Text Page